Regional Weather Roundup
Issued by NWS Sterling, VA

Home | Current Version | Previous Version | Graphics & Text | Print | Product List | Glossary On
Versions: 1 2 3 4 5 6 7 8 9 10 11 12 13 14 15 16 17 18 19 20 21 22 23 24 25 26 27 28 29 30 31 32 33 34 35 36 37 38 39 40 41 42 43 44 45 46 47 48 49 50
000
ASUS41 KLWX 251110
RWRLWX

REGIONAL WEATHER ROUNDUP
NATIONAL WEATHER SERVICE BALTIMORE MD/WASHINGTON DC
700 AM EDT FRI JUL 25 2014

Note: "FAIR" indicates few or no clouds below 12,000 feet
with no significant weather and/or obstructions to visibility.
 TC=TEMPERATURE CELSIUS

 * =Non NWS site. Station does not report precipitation (e.g. rain,
    snow, etc.), thunder, or fog.

DCZ001-MDZ009-015-VAZ040>042-051-053>054-251200-
WASHINGTON METRO
  /KDAA//-FT BELVOIR

CITY           SKY/WX    TMP DP  RH WIND       PRES   REMARKS
WASHINGTON NAT PTCLDY    66  54  65 N8        30.05R
DULLES         PTCLDY    61  54  77 N5        30.06R
ANDREWS AFB    CLEAR     62  55  77 N5        30.05R
QUANTICO       CLEAR     63  58  83 NW9       30.06R
COLLEGE PARK*  CLEAR     59  59 100 CALM      30.04S
LEESBURG*      CLEAR     61  57  88 N3        30.07R
MANASSAS*      CLEAR     61  59  94 CALM      30.06R
GAITHERSBURG*  CLEAR     57  52  82 CALM      30.09S

$$

MDZ006>007-011-014-251200-
BALTIMORE METRO

CITY           SKY/WX    TMP DP  RH WIND       PRES   REMARKS
BWI AIRPORT    CLEAR     60  53  77 NW3       30.04R
MD SCIENCE CTR   N/A     66  50  56 MISG      30.05R
MARTIN STATE   SUNNY     61  55  82 NW5       30.05R
ANNAPOLIS      CLEAR     66  55  67 NW9       30.03R
FORT MEADE*    CLEAR     55  54  94 CALM      30.07R

$$

MDZ012-015-019>023-251200-
MARYLAND EASTERN SHORE

CITY           SKY/WX    TMP DP  RH WIND       PRES   REMARKS
OCEAN CITY     SUNNY     64  60  87 NW6       29.99R
SALISBURY      NOT AVBL
BAY BRIDGE AP*   N/A     68  54  60 N8        30.03R
CAMBRIDGE*     SUNNY     66  54  63 N5        30.02R
EASTON*        SUNNY     64  59  82 CALM      30.06R

$$

MDZ017>025-251200-
SOUTHERN MARYLAND

CITY           SKY/WX    TMP DP  RH WIND       PRES   REMARKS
PATUXENT RIVER CLEAR     70  57  63 N8        30.02R
ST INIGOES     CLEAR     64  58  80 CALM      30.01R
LEONARDTOWN*   CLEAR     61  59  94 CALM      30.04R

$$

MDZ003>005-251200-
NORTH CENTRAL MARYLAND

CITY           SKY/WX    TMP DP  RH WIND       PRES   REMARKS
FREDERICK*     CLEAR     55  55 100 CALM      30.09R
HAGERSTOWN APT CLEAR     59  51  75 CALM      30.07R
WESTMINSTER*   CLEAR     57  54  88 CALM      30.07R

$$

MDZ501>502-251200-
WESTERN MARYLAND

CITY           SKY/WX    TMP DP  RH WIND       PRES   REMARKS
OAKLAND*       CLEAR     52 N/A N/A S5        30.13R
CUMBERLAND*    CLEAR     57  55  94 CALM      30.13R

$$

VAZ025>031-251200-
SHENANDOAH VALLEY

CITY           SKY/WX    TMP DP  RH WIND       PRES   REMARKS
WINCHESTER*    CLEAR     55  52  88 CALM      30.07S
STAUNTON*      MOCLDY    62  58  86 NW3       30.09S

$$

WVZ021-048>050-054>055-251200-
EASTERN WEST VIRGINIA PANHANDLE

CITY           SKY/WX    TMP DP  RH WIND       PRES   REMARKS
MARTINSBURG    CLEAR     56  52  86 CALM      30.07R
PETERSBURG*    FOG       54  51  89 CALM      30.11R VSB<1/4

$$

VAZ036>039-050-251200-
CENTRAL FOOTHILLS

CITY           SKY/WX    TMP DP  RH WIND       PRES   REMARKS
CHARLOTTESVILL PTCLDY    60  59  96 CALM      30.06R FOG
ORANGE*        CLEAR     59  59 100 CALM      30.07R

$$

VAZ055>057-251200-
NORTH AND CENTRAL PIEDMONT

CITY           SKY/WX    TMP DP  RH WIND       PRES   REMARKS
FREDERICKSBRG* CLEAR     61  61 100 NW5       30.04R
STAFFORD*      CLEAR     57  57 100 CALM      30.09R

$$

NCZ024-NYZ072-PAZ021-071-VAZ022-071-251200-
OTHER REGIONAL OBSERVATIONS

CITY           SKY/WX    TMP DP  RH WIND       PRES   REMARKS
NEW YORK CITY  SUNNY     67  53  61 VRB6      30.01R
PHILADELPHIA   MOSUNNY   64  51  62 N10       30.01R
PITTSBURGH     PTCLDY    52  49  89 W3        30.10R
ROANOKE        PTCLDY    63  61  93 W3        30.10R
RICHMOND       PTCLDY    67  62  84 CALM      30.03R
RALEIGH        FOG       67  65  93 CALM      30.04R VSB 1/2

$$

ANZ530>537-251200-
MARINE OBSERVATIONS

STATION/POSITION TIME  TEMP    WIND        PRES
                       AIR SEA DIR/SP/G
                 (UTC) (F)     (DEG/KT/KT) (MB)
THOMAS PT LIGHT  1100   67 78  360/ 14/ 15 1017.3R
BALT KEY BRIDGE  1100   68     330/ 10/ 12 1016.9R
COVE POINT       1100   72      30/ 12/ 14 1016.3R
LEWISETTA        1100   72 79   20/  8/ 12 1016.0S
SOLOMONS ISLAND  1100      80                N/A
PINEY POINT      1100           40/  5/  6   N/A

$$



USA.gov is the U.S. government's official web portal to all federal, state and local government web resources and services.